Flight Track Log - Related Links

Times and Time Zones

All times are in EDT time to prevent confusion due to time zone crossing. See the N53NW flight status page for this flight to view local times or setup timezone preferences in your user account.

Time Position Orientation Groundspeed Altitude Reporting Facility
EDT Latitude Longitude Course Direction KTS MPH feet Rate Location/Type
12:31PM 36.8678 -97.3453 331° Northwest 219 252 6,000  Level Kansas City Center
12:32PM 36.9239 -97.3856 330° Northwest 227 261 8,300 2,304 Climbing Kansas City Center
12:33PM 36.7982 -97.7603 276° West  Level FlightAware Approximate
12:33PM 36.9842 -97.4261 332° Northwest 242 278 10,800  Level Kansas City Center
12:34PM 36.8111 -97.8743 279° West  Level FlightAware Approximate
12:34PM 37.0494 -97.4678 333° Northwest 258 297 13,300  Level Kansas City Center
12:35PM 36.8248 -97.9882 279° West  Level FlightAware Approximate
12:35PM 37.0806 -97.5417 298° West 265 305 15,800  Level Kansas City Center
12:36PM 37.0881 -97.6339 276° West 265 305 17,900 1,984 Climbing Kansas City Center
12:37PM 37.0961 -97.7486 275° West 269 310 19,900 2,000 Climbing Kansas City Center
12:38PM 37.1028 -97.8436 275° West 271 312 22,000 1,654 Climbing Kansas City Center
12:39PM 37.1100 -97.9406 275° West 274 315 23,400 1,344 Climbing Kansas City Center
12:40PM 37.1178 -98.0436 275° West 288 331 24,800 1,426 Climbing Kansas City Center
12:41PM 37.1256 -98.1492 275° West 297 342 26,300 1,403 Climbing Kansas City Center
12:42PM 37.1336 -98.2575 275° West 305 351 27,700 1,500 Climbing Kansas City Center
12:43PM 37.1419 -98.3883 275° West 309 356 29,400 1,476 Climbing Kansas City Center
12:44PM 37.1517 -98.4992 276° West 315 362 30,800 1,344 Climbing Kansas City Center
12:45PM 37.1578 -98.6081 274° West 315 362 32,200 1,339 Climbing Kansas City Center
12:46PM 37.1656 -98.7158 275° West 315 362 33,500 1,104 Climbing Kansas City Center
12:47PM 37.1733 -98.8256 275° West 315 362 34,500 1,000 Climbing Kansas City Center
12:48PM 37.1803 -98.9344 275° West 315 362 35,600 1,073 Climbing Kansas City Center
12:49PM 37.1897 -99.0703 275° West 318 366 36,700 1,008 Climbing Kansas City Center
12:50PM 37.1969 -99.1778 275° West 322 371 37,700 960 Climbing Kansas City Center
12:51PM 37.2036 -99.2922 274° West 325 374 38,700 968 Climbing Kansas City Center
12:52PM 37.2114 -99.4069 275° West 329 379 39,700 624 Climbing Kansas City Center
12:53PM 37.2200 -99.5389 275° West 331 381 40,000 148 Climbing Kansas City Center
12:54PM 37.2261 -99.6603 274° West 357 411 40,000  Level Kansas City Center
12:55PM 37.2350 -99.8014 275° West 361 415 40,000  Level Kansas City Center
12:56PM 37.2428 -99.9208 275° West 361 415 40,000  Level Kansas City Center
12:58PM 37.2494 -100.0631 273° West 362 417 40,000  Level Kansas City Center
12:59PM 37.2572 -100.1839 275° West 362 417 40,000  Level Kansas City Center
01:00PM 37.2644 -100.3247 274° West 362 417 40,000  Level Kansas City Center
01:01PM 37.2706 -100.4464 274° West 362 417 40,000  Level Kansas City Center
01:02PM 37.2783 -100.5875 274° West 362 417 40,000  Level Kansas City Center
01:03PM 37.2853 -100.7097 274° West 362 417 40,000  Level Kansas City Center
01:04PM 37.2919 -100.8528 273° West 363 418 40,000  Level Kansas City Center
01:05PM 37.2975 -100.9767 273° West 364 419 40,000  Level Kansas City Center
01:06PM 37.3033 -101.1000 273° West 365 420 40,000  Level Kansas City Center
01:07PM 37.3111 -101.2439 274° West 366 421 40,000  Level Kansas City Center
01:08PM 37.3169 -101.3678 273° West 367 422 40,000  Level Kansas City Center
01:09PM 37.3233 -101.5117 273° West 368 423 40,000  Level Kansas City Center
01:10PM 37.3289 -101.6358 273° West 368 423 40,000  Level Kansas City Center
01:11PM 37.3353 -101.7814 273° West 369 425 40,000  Level Kansas City Center
01:12PM 37.3406 -101.9053 273° West 371 427 40,000  Level Kansas City Center
01:13PM 37.3458 -102.0500 273° West 371 427 40,000  Level Kansas City Center
01:14PM 37.3506 -102.1739 273° West 371 427 40,000  Level Kansas City Center
01:17PM 37.3619 -102.5097 273° West 371 427 40,000  Level Denver Center
01:17PM 37.3667 -102.5878 274° West 371 427 40,000  Level Kansas City Center
01:18PM 37.3706 -102.7117 272° West 371 427 40,000  Level Kansas City Center
01:19PM 37.3761 -102.8553 273° West 371 427 40,000  Level Kansas City Center
01:20PM 37.3792 -102.9783 272° West 370 426 40,000 -336 Level Kansas City Center
01:21PM 37.3842 -103.1025 273° West 370 426 39,300 -1,076 Descending Kansas City Center
01:23PM 37.3883 -103.2886 272° West 376 433 37,400 -1,385 Descending Albuquerque Center
01:24PM 37.3922 -103.4194 272° West 376 433 36,000 -1,500 Descending Albuquerque Center
01:25PM 37.3953 -103.5778 271° West 376 433 34,300 -968 Descending Albuquerque Center
01:26PM 37.3992 -103.7108 272° West 377 434 34,000 -145 Descending Albuquerque Center
01:27PM 37.4022 -103.8403 272° West 377 434 34,000  Level Albuquerque Center
01:28PM 37.4033 -104.0033 271° West 378 435 34,000  Level Denver Center
01:29PM 37.4081 -104.1386 273° West 378 435 34,000  Level Denver Center
01:30PM 37.4111 -104.2714 272° West 378 435 34,000 -629 Level Denver Center
01:31PM 37.4139 -104.4036 272° West 378 435 32,700 -1,645 Descending Denver Center
01:32PM 37.4161 -104.5389 271° West 385 443 30,600 -2,129 Descending Denver Center
01:33PM 37.4192 -104.6736 272° West 385 443 28,300 -2,177 Descending Denver Center
01:34PM 37.4219 -104.8072 272° West 384 442 26,100 -2,304 Descending Denver Center
01:35PM 37.3789 -104.9497 249° West 368 423 23,500 -2,304 Descending Denver Center
01:36PM 37.3319 -105.0567 241° Southwest 353 406 21,300 -2,129 Descending Denver Center
01:37PM 37.2872 -105.1561 241° Southwest 339 390 19,100 -1,887 Descending Denver Center
01:38PM 37.2456 -105.2542 242° Southwest 328 377 17,400 -1,500 Descending Denver Center
01:39PM 37.2056 -105.3489 242° Southwest 318 366 16,000 -677 Descending Denver Center
01:40PM 37.1658 -105.4394 241° Southwest 307 353 16,000 -194 Level Denver Center
01:41PM 37.1306 -105.5250 243° Southwest 291 335 15,600 -387 Descending Denver Center
01:43PM 37.0788 -105.6336 239° Southwest  Level FlightAware Approximate
01:50PM 37.4267 -105.8467 338° Northwest  Level FlightAware Approximate
01:51PM 37.4333 -105.8500 338° Northwest  Level FlightAware Approximate
01:52PM 37.4349 -105.8666 North  Level Estimated
01:53PM 37.4349 -105.8666 338° Northwest  Level Estimated

Login

Don't have an account? Register now (free) for customized features, flight alerts, and more!